Regional Weather Roundup
Issued by NWS Grand Forks, ND

Home | Current Version | Previous Version | Text Only | Print | Product List | Glossary Off
Versions: 1 2 3 4 5 6 7 8 9 10 11 12 13 14 15 16 17 18 19 20 21 22 23 24 25 26 27 28 29 30 31 32 33 34 35 36 37 38 39 40 41 42 43 44 45 46 47 48 49 50

000
ASUS43 KFGF 030410
RWRFGF
PRAIRIE TO PINES  WEATHER ROUNDUP
NATIONAL WEATHER SERVICE EASTERN NORTH DAKOTA/GRAND FORKS ND
1100 PM CDT TUE JUN 02 2015

 **SATELLITE DATA USED TO AUGMENT SKY COVER AT AUTOMATED STATIONS**
 *****  WEATHER ACROSS EASTERN NORTH DAKOTA  *****

CITY           SKY/WX    TMP DP  RH WIND       PRES   REMARKS
GRAND FORKS    MOCLDY    63  60  90 NE14      29.74F
GRAND FRKS AFB CLOUDY    61  60  96 NE10      29.74F
GRAND FRKS NWS   N/A     61 N/A N/A NE6         N/A
DEVILS LAKE    CLOUDY    61  55  82 NE15G23   29.76S
FARGO          CLOUDY    76  62  62 S22G29    29.65F
WAHPETON ARPT  CLOUDY    72  59  64 S16G23    29.70R
$$

 ***** WEATHER ACROSS CENTRAL AND WESTERN NORTH DAKOTA  *****

CITY           SKY/WX    TMP DP  RH WIND       PRES   REMARKS
BISMARCK       CLOUDY    68  65  90 W13G23    29.77R
MINOT          LGT RAIN  53  51  93 N28G35    29.82S
JAMESTOWN      CLEAR     64  62  93 NE13      29.69S
MINOT AFB      DRIZZLE   52  52 100 N22G32    29.83R
GARRISON         N/A     58  55  90 N12G25    29.78R
WILLISTON      CLOUDY    56  53  90 N10       29.92R
DICKINSON      CLOUDY    56  53  90 W15       29.84R
HETTINGER      MOCLDY    55  50  83 W13       29.90R
$$

 *****  OTHER AIRPORT OBSERVATIONS IN OUR AREA  *****

CITY           SKY/WX    TMP DP  RH WIND       PRES   REMARKS
WALHALLA       FAIR      57  45  62 MISG      29.82S
GRAFTON AIRPOR CLOUDY    61  61 100 NE13      29.78S
VALLEY CITY AR FAIR      64  64 100 NE7       29.70S
CANDO          CLOUDY    59  57  94 NE12G18   29.79F
CAVALIER APRT  CLOUDY    57  52  82 NE9G18    29.81R
GWINNER        NOT AVBL
SHEYENNE NWR     N/A     73  62  68 S9        29.95
ROLLA          CLOUDY    54  50  87 N17       29.84S
 ***** THE ABOVE OBSERVATIONS ARE NON NWS ARE NOT QUALITY
       CONTROLLED AND MAY MIS-REPORT RAIN FOR SNOW...
$$

  *****  WEATHER ACROSS NORTHERN MINNESOTA  *****

CITY           SKY/WX    TMP DP  RH WIND       PRES   REMARKS
FLAG ISLAND    LGT RAIN  59  57  94 CALM      29.83R
WARROAD        RAIN      59  55  88 E7        29.82S
ROSEAU         LGT RAIN  61  55  82 E6        29.80F
HALLOCK        CLOUDY    63  61  94 NE10      29.78F
THF RVR FALLS  CLOUDY    61  59  94 E16       29.78F
BAUDETTE       RAIN      60  58  92 CALM      29.84F FOG
WASKISH        TSTM      61  57  88 CALM      29.84R
CROOKSTON      CLOUDY    63  61  94 E13       29.74F
STEPHEN NDAWN    N/A     61  61 100 E7          N/A
GREENBUSH NDAW   N/A     61  61 100 E7          N/A
$$
  *****  WEATHER ACROSS CENTRAL AND WEST MINNESOTA  *****

CITY           SKY/WX    TMP DP  RH WIND       PRES   REMARKS
FOSSTON        LGT RAIN  64  57  77 SE6       29.74F
BEMIDJI        MOCLDY    63  54  72 SE10      29.78F
PARK RAPIDS    CLOUDY    68  52  56 SE12      29.78S
ELBOW LAKE     FAIR      70  58  66 SE18G25   29.75F
WADENA         CLOUDY    70  54  56 S18       29.78F
DETROIT LAKES  CLOUDY    72  57  60 S14       29.75F
MOORHEAD       CLOUDY    73  63  68 S15       29.68F
FERGUS FALLS   CLOUDY    72  57  60 S16       29.74S
MORRIS MN      PTCLDY    72  57  60 SE17      29.77F
STAPLES        MOCLDY    70  50  49 SE10      29.82S
$$
  *****  WEATHER ELSEWHERE ACROSS MINNESOTA  *****

CITY           SKY/WX    TMP DP  RH WIND       PRES   REMARKS
DULUTH         MOCLDY    52  40  63 SE9       29.92F
INTRNTL FALLS  LGT RAIN  58  56  93 SE3       29.86R
ELY            CLOUDY    63  50  63 S6        29.90F
CLOQUET        PTCLDY    50  43  76 E5        29.91F
WHEATON        MOCLDY    72  61  68 SE15      29.73F
BRAINERD       CLOUDY    68  52  56 S12G22    29.85F
HIBBING        CLOUDY    63  52  67 S9        29.87F
ALEXANDRIA     CLOUDY    69  55  60 S16G24    29.82F
SAINT CLOUD    PTCLDY    65  52  62 SE8       29.88R
MINNEAPOLIS    PTCLDY    68  52  56 SE8       29.93R
$$

  *****  WEATHER ACROSS SOUTH DAKOTA  *****

CITY           SKY/WX    TMP DP  RH WIND       PRES   REMARKS
SIOUX FALLS    CLOUDY    70  61  73 S17G25    29.84R
BROOKINGS      MOCLDY    72  61  68 S18       29.83R
WATERTOWN      MOCLDY    70  61  73 S13       29.78R
HURON          CLOUDY    74  63  68 S10       29.76R
SISSETON         N/A     71  62  73 S15       29.71F
ABERDEEN       PTCLDY    74  64  71 S10       29.71R
MITCHELL       CLOUDY    74  63  68 S14       29.79R
PIERRE         TSTM      71  60  68 NW9       29.75R
MOBRIDGE       CLOUDY    68  62  81 NW7       29.73R
RAPID CITY     MOCLDY    63  59  87 NW15      29.89R
$$

  *****  SOME WEATHER IN NEARBY STATES *****

CITY           SKY/WX    TMP DP  RH WIND       PRES   REMARKS
GLASGOW MT     CLOUDY    57  51  80 E6        29.94R
GREAT FALLS MT CLOUDY    54  52  93 SE5       29.97R
CHEYENNE WY    PTCLDY    61  50  67 NW5       30.00R
SCOTTSBLUFF NE CLEAR     62  51  67 E5        29.85R
OMAHA NE       CLEAR     65  58  78 SE14      29.91S
DES MOINES IA  CLOUDY    65  55  70 SE12      29.97S
DAVENPORT IA   PTCLDY    62  51  67 SE8       30.04S
CHICAGO IL     PTCLDY    54  46  74 SE9       30.09F
EAU CLAIRE WI  PTCLDY    64  49  57 S8        29.97F
LA CROSSE WI   PTCLDY    65  49  56 S7        29.98F
$$

  *****  SOME NATIONAL WEATHER *****

CITY           SKY/WX    TMP DP  RH WIND       PRES   REMARKS
LA GUARDIA NY  CLOUDY    54  49  83 E9        30.18F
RALEIGH NC     CLOUDY    67  65  93 CALM      30.02S
ATLANTA GA     PTCLDY    73  60  63 N6        29.98S
NEW ORLEANS LA PTCLDY    80  66  62 NE7       29.93S
OKLAHOMA CITY  PTCLDY    74  65  73 S12       29.92R
ALBUQUERQUE NM CLEAR     80  24  12 W3        30.00R
SALT LAKE CITY MOCLDY    69  48  47 N8        29.90S
LOS ANGELES CA PTCLDY    62  58  86 W8        29.94S
BOISE ID       MOCLDY    63  46  54 W15G23    29.96R
SEATTLE WA     CLOUDY    57  50  77 SW10      30.06S
$$

*** WEATHER ACROSS MANITOBA...SASKATCHEWAN AND ONTARIO ***
                ***ONTARIO***

CITY           SKY/WX    TMP DP  RH WIND       PRES   REMARKS
GERALDTON      CLOUDY    55  30  38 SW8       29.96F
THUNDER BAY    CLOUDY    52  39  62 E2        29.96S
SIOUX LOOKOUT  LGT RAIN  55  55 100 CALM      29.88S FOG
TORONTO        CLEAR     52  43  71 E5        30.21R
BIG TROUT LK   CLEAR     45  37  76 CALM      29.82R
PICKLE LAKE    NOT AVBL
DRYDEN         LGT RAIN  55  55 100 NE2       29.86F VSB 3/4
KENORA         MOCLDY    57  57 100 CALM      29.85R
$$
                *** MANITOBA***

CITY           SKY/WX    TMP DP  RH WIND       PRES   REMARKS
BRANDON        CLOUDY    55  43  62 N12       29.90S
DAUPHIN        CLOUDY    55  37  50 N6        29.95R
ISLAND LAKE    CLEAR     50  37  62 N3        29.89R
PILOT MOUND      N/A     55  46  71 NE13G18     N/A
THE PAS        PTCLDY    48  28  46 CALM      29.97R
THOMPSON       PTCLDY    46  32  57 W3        29.92R
WINNIPEG       CLOUDY    57  32  38 NE15G21   29.88S
LYNN LAKE      CLEAR     45  28  53 NW7       29.96R
CHURCHILL      LGT RAIN  36  36 100 NW22G32   29.66R FOG
GILLAM         MOCLDY    46  36  66 W17G25    29.82S
$$
                ***SASKATCHEWAN***

CITY           SKY/WX    TMP DP  RH WIND       PRES   REMARKS
ESTEVAN        LGT RAIN  54  52  94 NE10      29.92R FOG
KINDERSLEY     CLOUDY    55  32  41 E9        29.99R
LLOYDMINSTER   CLOUDY    55  34  44 SE9       29.98S
PRINCE ALBERT  MOCLDY    46  36  66 CALM      29.99R
REGINA         CLOUDY    59  36  41 CALM      29.96R
YORKTON        MOCLDY    55  43  62 SE6       29.95R
N. BATTLEFORD  CLEAR     48  36  61 E7        30.02R
LA RONGE       NOT AVBL
SASKATOON      MOCLDY    50  32  50 N5        30.01R
SWIFT CURRENT  CLOUDY    55  36  47 S3        29.99R
$$
NOTE: THESE ARE AUTOMATED STATIONS WITH LIMITED QUALITY CONTROL
      "FAIR" INDICATES FEW OR NO CLOUDS BELOW 12,000 FEET WITH NO
      SIGNIFICANT WEATHER AND/OR OBSTRUCTIONS TO VISIBILITY.
      SKY/WX - SKY CONDITION AND SIGNIFICANT WEATHER.
      TMP - AIR TEMPERATURE.    DP   - DEWPOINT TEMPERATURE.
      RH  - RELATIVE HUMIDITY.  PRES - PRESSURE.
      HX  - HEAT INDEX.         WCI  - WIND CHILL INDEX.
$


USA.gov is the U.S. government's official web portal to all federal, state and local government web resources and services.